SKY MUSTER 2

导读 | 星芒AI

SKY MUSTER 2 是由澳大利亚电信公司 NBN 所拥有的第二代宽带卫星,于2018年发射,与 SKY MUSTER 1 共同构成 NBN 的卫星网络,为偏远地区提供互联网服务。该卫星采用先进的Ka波段技术,提供更高的带宽和更低的延迟,显著提升了用户体验。SKY MUSTER 2 由澳大利亚悉尼大学参与设计,是澳大利亚首个完全由本土团队主导设计的卫星项目,标志着澳大利亚在航天和通信技术领域的重大进展。

基本信息
目录编号:
41794
目录名称:
SKY MUSTER 2
国际标识:
2016-060B
轨道中心:
EARTH
卫星名称:
SKY MUSTER 2
卫星全名:
--
卫星状态:
在轨 (已飞行3313 天)
发射日期:
2016-10-05 UTC
国别 :
澳大利亚 (AU)
星等 :
--
轨道信息
数据来源 国际轨道数据 AOE轨道数据
星历时间 2025-10-31T02:49:13+0800
6小时前
查看轨道信息
2025-10-31T02:00:00+0800
7小时前
查看轨道信息
半长轴 42164.953km 42165.317km
偏心率 0.0001391 0.0001556
轨道倾角 0.012° 0.012°
近地点辐角 309.088° 315.672°
升交点赤经 264.195° 263.156°
平近点角 253.191° 235.309°
近地点 35780.952km 35780.621km
远地点 35792.684km 35793.743km
周期 1436.108分钟 1436.127分钟
每日圈数 1.00271 1.002697
详细信息
使用方式:
暂无
2D轨道图
3D轨道图
轨道高度分析图
轨道倾角分析图
轨道综合分析图
查看轨道综合分析图